Regional Weather Roundup
Issued by NWS

Home | Current Version | Previous Version | Graphics & Text | Print | Product List | Glossary On
Versions: 1 2 3 4 5 6 7 8 9 10 11 12 13 14 15 16 17 18 19 20 21 22 23 24 25 26 27 28 29 30 31 32 33 34 35 36 37 38 39 40 41 42 43 44 45 46 47 48 49
000
ASUS45 KBOU 080907
RWRCO

WEATHER ROUNDUP FOR COLORADO
NATIONAL WEATHER SERVICE DENVER/BOULDER CO
200 AM MST MON FEB 08 2016

NOTE: "FAIR" INDICATES FEW OR NO CLOUDS BELOW 12000 FEET WITH NO
SIGNIFICANT WEATHER AND/OR OBSTRUCTIONS TO VISIBILITY.

COZ001>005-013-030-031-081000-
...NORTHWEST COLORADO...

CITY           SKY/WX    TMP DP  RH WIND       PRES   REMARKS
CRAIG          CLOUDY    -4  -8  83 CALM      30.56R
HAYDEN         CLOUDY    16   9  73 E3        30.52S
MEEKER         CLOUDY     9   4  80 NE6       30.55R WCI  -1
MOUNT WERNER   NOT AVBL
STEAMBOAT SPGS CLOUDY    17  13  82 CALM      30.52S
WALDEN         CLOUDY    25  16  68 S6        30.44S WCI  18
$$

COZ006>008-011-081000-
...WEST CENTRAL VALLEYS...

CITY           SKY/WX    TMP DP  RH WIND       PRES   REMARKS
GRAND JUNCTION CLOUDY    14  12  92 E6        30.55R WCI   5
MONTROSE       CLOUDY    13   8  81 SE8       30.57R WCI   2
EAGLE          CLOUDY    14  12  92 SE3       30.58R
RIFLE          CLOUDY    11   7  84 CALM      30.58R
DELTA          CLOUDY    20  17  89 E3        30.57R
NUCLA          CLOUDY    21  16  79 E3        30.53S
$$

COZ017>023-064>068-081000-
...SOUTHWEST COLORADO...

CITY           SKY/WX    TMP DP  RH WIND       PRES   REMARKS
DURANGO        CLOUDY     8   5  87 NE8       30.42S WCI  -4
CORTEZ         CLOUDY    17  12  80 CALM      30.43S
PAGOSA SPRINGS CLOUDY    14  12  93 CALM      30.42R
TELLURIDE      NOT AVBL
WOLF CREEK PAS CLOUDY    25   3  39 E12       30.49S WCI  14
$$

COZ009-010-012-014-032>034-037-058>063-081000-
...CENTRAL COLORADO...

CITY           SKY/WX    TMP DP  RH WIND       PRES   REMARKS
ASPEN          CLOUDY    13   7  77 S6        30.53R WCI   4
BUENA VISTA    CLOUDY    32  11  42 N23G39    30.35R WCI  19
COPPER MTN     CLOUDY    18  10  73 W12G17    30.46S WCI   5
BERTHOUD PASS  LGT SNOW  10   0  61 NW43G49   30.35F VSB 3/4 WCI -15
COTTONWOOD PAS CLOUDY    34   7  32 CALM      30.36R
GUNNISON       CLOUDY    -8 N/A N/A CALM      30.55R
KREMMLING      CLOUDY    19  12  73 CALM      30.51R
LEADVILLE      CLOUDY    12   5  73 NE6       30.47R WCI   3
MONARCH PASS   CLOUDY    12   7  79 MISG      30.51S
SALIDA         NOT AVBL
SUNLIGHT       CLOUDY    21  14  73 W7          N/A  WCI  13
WILKERSON PASS CLOUDY    21  10  63 N21G41    30.34S WCI   6
$$

COZ069>075-081000-
...SAN LUIS VALLEY/SANGRE DE CRISTO MOUNTAINS...

CITY           SKY/WX    TMP DP  RH WIND       PRES   REMARKS
ALAMOSA        CLOUDY    10   5  80 SW7       30.40S WCI  -1
LA VETA PASS   CLOUDY    23   7  50 MISG      30.36S
SAGUACHE       CLOUDY    28  12  50 NW15      30.41S WCI  17
$$

COZ035-036-038>040-081000-
...NORTHERN COLORADO FRONT RANGE...

CITY           SKY/WX    TMP DP  RH WIND       PRES   REMARKS
DENVER INTL AP CLOUDY    22  14  71 S10       30.36S WCI  11
DMNS CITY PARK   N/A     24  14  64 SE8       30.38R WCI  15
AURORA         MOCLDY    20  13  73 S10       30.37R WCI   9
FRONT RANGE AP NOT AVBL
ERIE MUNI ARPT CLOUDY    26  17  68 S5        30.37S WCI  20
BOULDER MUN AP CLOUDY    27  18  69 SE7       30.37S WCI  19
CENTENNIAL     CLOUDY    21  15  78 S14       30.35F WCI   8
BROOMFIELD     CLOUDY    25  19  80 SE7       30.36S WCI  17
FORT COLLINS   CLOUDY    21  16  79 S6        30.38S WCI  14
LONGMONT       CLOUDY    26  19  74 SW3       30.40S
$$

COZ041-046-047-076>085-087-088-081000-
...PIKES PEAK/PALMER DIVIDE AND SOUTHERN FOOTHILLS...

CITY           SKY/WX    TMP DP  RH WIND       PRES   REMARKS
COLO. SPRINGS  CLOUDY    23  19  85 CALM      30.38F
A. F. ACADEMY  CLOUDY    21  19  89 SE5       30.35F WCI  15
SCHRIEVER AFB  NOT AVBL
ELLICOTT       NOT AVBL
FALCON         CLOUDY    20  19  97 W3        30.36S
FORT CARSON    CLOUDY    24  20  85 S2        30.37F
LIMON          CLOUDY    15   8  73 SW8       30.36S WCI   4
MONUMENT HILL  CLOUDY    14  10  85 S8        30.34S WCI   3
TRINIDAD       CLOUDY    23  19  85 CALM      30.40S
$$

COZ042>045-048>051-090-091-081000-
...NORTHEAST COLORADO...

CITY           SKY/WX    TMP DP  RH WIND       PRES   REMARKS
GREELEY ARPT   CLOUDY    19  14  79 NW5       30.39F WCI  13
AKRON          CLOUDY    21  11  65 NW21      30.34S WCI   5
BURLINGTON     CLEAR     24  12  60 NW25      30.33F WCI   8
WRAY           CLEAR     28  12  52 NW22      30.34S WCI  13
STERLING       CLOUDY    25  12  58 N9        30.36R WCI  15
HOLYOKE        CLEAR     28  12  50 NW20G29   30.32R WCI  15
FORT MORGAN    CLOUDY    16  12  85 W6        30.39S WCI   7
$$

COZ086-089-092>099-081000-
...SOUTHEAST COLORADO...

CITY           SKY/WX    TMP DP  RH WIND       PRES   REMARKS
PUEBLO         CLOUDY    30  21  69 CALM      30.42F
LA JUNTA       CLOUDY    28  20  71 W10       30.42F WCI  19
LAMAR          CLEAR     27  16  63 W13       30.39F WCI  16
SPRINGFIELD      N/A     24  16  71 NW15      30.39F WCI  11
$$




USA.gov is the U.S. government's official web portal to all federal, state and local government web resources and services.